Torna al catalogo

ARIANE 2 DEB

LostGTO
NORAD 33571·DEBRIS·🇫🇷 France

Lanciato Jan 27, 1989 da Guiana Space Centre

Loading…

TLE

ObsoletoSource: Space-Track

Epoca: Oct 30, 2021, 11:33 UTC

1 33571U 89006BP  21303.48143031 -.00000145  00000-0  00000-0 0  9996
2 33571  11.2161 173.6963 6941742 226.9189 357.5673  2.22065629135658

Traccia ARIANE 2 DEB in tempo reale con AllMySat

Download on the App Store